This is the latest recevied weather packets stored in our database for station/object OH6HPS. If no packets are shown the sender has not sent any weather packets the latest 10 day(s).
| Time | Temp. | Humidity | Pressure | Rain* | Wind** | Luminosity | Snow |
|---|---|---|---|---|---|---|---|
| 1777560902 | 17.78° C | 50% | 1019.7 hPa | 0 mm | - | 332 W/m² | - |
| 1777560303 | 17.78° C | 48% | 1019.7 hPa | 0 mm | - | 419 W/m² | - |
| 1777559702 | 17.78° C | 50% | 1019.6 hPa | 0 mm | - | 153 W/m² | - |
| 1777559101 | 17.78° C | 50% | 1019.8 hPa | 0 mm | - | 494 W/m² | - |
| 1777558498 | 17.78° C | 50% | 1019.7 hPa | 0 mm | - | 552 W/m² | - |
| 1777557898 | 17.22° C | 52% | 1019.8 hPa | 0 mm | - | 429 W/m² | - |
| 1777557585 | 17.22° C | 52% | 1019.8 hPa | 0 mm | - | 239 W/m² | - |
| 1777557301 | 17.22° C | 52% | 1019.8 hPa | 0 mm | - | 239 W/m² | - |
| 1777556700 | 17.22° C | 51% | 1019.9 hPa | 0 mm | - | 236 W/m² | - |
| 1777556098 | 17.22° C | 50% | 1019.8 hPa | 0 mm | - | 292 W/m² | - |
| 1777555495 | 17.78° C | 49% | 1019.9 hPa | 0 mm | - | 352 W/m² | - |
| 1777554896 | 17.22° C | 51% | 1019.9 hPa | 0 mm | - | 394 W/m² | - |
| 1777554296 | 17.22° C | 53% | 1019.9 hPa | 0 mm | - | 461 W/m² | - |
| 1777553698 | 16.67° C | 52% | 1020 hPa | 0 mm | - | 366 W/m² | - |
| 1777553094 | 16.67° C | 53% | 1020.1 hPa | 0 mm | - | 441 W/m² | - |
| 1777552495 | 16.67° C | 52% | 1020.3 hPa | 0 mm | - | 369 W/m² | - |
| 1777551893 | 16.67° C | 53% | 1020.2 hPa | 0 mm | - | 580 W/m² | - |
| 1777551292 | 16.67° C | 53% | 1020.2 hPa | 0 mm | - | 535 W/m² | - |
| 1777550690 | 16.67° C | 53% | 1020.3 hPa | 0 mm | - | 529 W/m² | - |
| 1777550090 | 16.67° C | 55% | 1020.3 hPa | 0 mm | - | 633 W/m² | - |
| 1777549491 | 16.11° C | 53% | 1020.3 hPa | 0 mm | - | 515 W/m² | - |
| 1777548881 | 16.11° C | 54% | 1020.3 hPa | 0 mm | - | 507 W/m² | - |
| 1777548279 | 16.11° C | 53% | 1020.3 hPa | 0 mm | - | 373 W/m² | - |
| 1777547679 | 16.67° C | 55% | 1020.3 hPa | 0 mm | - | 417 W/m² | - |
| 1777547079 | 16.11° C | 55% | 1020.3 hPa | 0 mm | - | 457 W/m² | - |
* Rain latest hour (hover to see other rain measurements)
** Current wind speed in m/s (hover to see current wind gust speed)